Miscellaneous Local Product
Issued by NWS Hastings, NE

Home | Current Version | Previous Version | Text Only | Print | Product List | Glossary Off
Versions: 1 2 3 4 5 6 7 8 9 10 11 12 13 14 15 16 17 18 19 20 21 22 23 24 25 26 27 28 29 30 31 32 33 34 35 36 37 38 39 40 41 42 43 44 45 46 47 48 49 50

762
AXUS43 KGID 272202
MISGRI

GID CWA HOURLY WEATHER ROUNDUP
NATIONAL WEATHER SERVICE HASTINGS NE
500 PM CDT TUE SEP 27 2016

NOTE: "FAIR" INDICATES FEW OR NO CLOUDS BELOW 12,000 FEET WITH NO
SIGNIFICANT WEATHER AND/OR OBSTRUCTIONS TO VISIBILITY.

...SOUTH CENTRAL NEBRASKA...

CITY           SKY/WX    TMP DP  RH WIND       PRES   REMARKS
GRAND ISLAND   SUNNY     83  45  26 W12       29.91F
HASTINGS       SUNNY     83  44  25 W14G20    29.93F
KEARNEY        SUNNY     84  43  23 W16       29.91F
ORD            SUNNY     83  40  21 NW13      29.89F
YORK           SUNNY     81  45  28 NW10      29.91F
AURORA         SUNNY     81  44  26 NW10G16   29.91F
LEXINGTON      SUNNY     85  41  21 NW13G20   29.94F
HOLDREGE       SUNNY     82  42  23 NW7       29.94F
HEBRON         SUNNY     81  44  27 W7        29.90F

...NEBRASKA PANHANDLE...

CITY           SKY/WX    TMP DP  RH WIND       PRES   REMARKS
CHADRON        SUNNY     85  32  15 NW13      29.99F
ALLIANCE       SUNNY     84  31  14 NW8       30.03F
SCOTTSBLUFF    SUNNY     83  36  18 VRB3      30.05F
SIDNEY         SUNNY     84  31  14 N5        30.08F

...WESTERN AND NORTH CENTRAL NEBRASKA...

CITY           SKY/WX    TMP DP  RH WIND       PRES   REMARKS
VALENTINE      SUNNY     83  34  17 N16       29.95S
AINSWORTH      SUNNY     82  41  23 NW17G25   29.94F
ONEILL         SUNNY     81  38  21 NW14      29.91S
BROKEN BOW     SUNNY     86  42  21 NW14      29.92F
IMPERIAL       SUNNY     85  33  15 W10       30.01F
NORTH PLATTE   SUNNY     86  43  22 W12       29.95F
MCCOOK         SUNNY     85  43  22 W9        29.97F

...EASTERN NEBRASKA...

CITY           SKY/WX    TMP DP  RH WIND       PRES   REMARKS
NORFOLK        SUNNY     78  44  29 NW10      29.89F
SO SIOUX CITY  SUNNY     76  46  34 NW14      29.86F
TEKAMAH        SUNNY     79  41  25 W14       29.86F
COLUMBUS       SUNNY     81  45  28 NW10G17   29.89F
ALBION         SUNNY     81  43  25 W8        29.89F
OMAHA EPPLEY   SUNNY     79  43  27 NW12      29.87F
OFFUTT AFB     SUNNY     76  44  31 W9        29.87F
MILLARD        SUNNY     78  47  33 NW7       29.88F
LINCOLN        SUNNY     82  45  27 NW9       29.90F
NEBRASKA CITY  SUNNY     77  28  16 NW7       29.88F
BEATRICE       SUNNY     81  49  31 NW9G16    29.89F
FALLS CITY     SUNNY     77  51  40 NW7       29.88F

...NORTHERN KANSAS...

CITY           SKY/WX    TMP DP  RH WIND       PRES   REMARKS
GOODLAND       SUNNY     86  32  14 NW9       30.03F
HILL CITY      SUNNY     85  49  28 SW6       29.97F HAZE
NORTON         CLEAR     86  32  14 W10       29.96
PHILLIPSBURG   SUNNY     86  43  22 W8        29.95F
SMITH CENTER   SUNNY     82  45  26 W10       29.94F
HAYS           SUNNY     88  45  22 NW8       29.96F
RUSSELL        SUNNY     83  48  29 NW8       29.94F
CONCORDIA      SUNNY     83  47  28 W8        29.91F HAZE
SALINA         SUNNY     85  49  28 NW10      29.93F
TOPEKA         SUNNY     82  49  31 W8        29.89F



USA.gov is the U.S. government's official web portal to all federal, state and local government web resources and services.